Location: Newark
(48.5667°N, 7.8167°E)
Time: 04:42:25
(UTC+00:00)

JY1SAT - Pass Details

Date: 28 July 2021
Orbit: 568 x 591 km, 97.7° (Epoch: 19 September)

Event Time Altitude Azimuth Distance (km) Brightness Sun altitude
Exits shadow 21:08:01 23° 171° (S) 1,254 ? -15.1°
Maximum altitude 21:10:32 80° 257° (WSW) 603 ? -15.3°
Drops below altitude 10° 21:14:44 10° 345° (NNW) 1,930 ? -15.7°
Sets 21:16:55 0° 346° (NNW) 2,838 ? -15.9°
